Date String (YYYY-MM-DD hh:mm:ss) UTC,Instrument flags,Ambient pressure (hPa),Sample flow (lpm),Bypass flow (lpm),Sample temperature (°C),Ambient temperature (°C),ASC tube jacket temperature (°C),LED temperature (°C),Box temperature (°C),Sample RH (%),Span deviation,Mass concentration (μg/m³),Mass concentration (μg/m³),Mass concentration (μg/m³)
DateTimeUTC,F1_M11,P_M11,Q1_M11,Q2_M11,T1_M11,T2_M11,T3_M11,T4_M11,T5_M11,U1_M11,ZSPAN_M11,X0_M11,X2_M11,X1_M11
2022-10-10 18:00:00,,0827.4,5.01,0.00,29.8,28.2,00.0,38.5,31.6,11.7,0000.0,0008.74,0003.90,0003.52
2022-10-10 18:01:00,,0827.1,4.98,0.00,29.8,28.3,00.0,38.5,31.6,11.5,0000.0,0008.74,0003.90,0003.52
2022-10-10 18:02:00,,0827.2,5.01,0.00,29.8,28.5,00.0,38.5,31.6,11.9,0000.0,0008.74,0003.91,0003.52
2022-10-10 18:03:00,,0827.0,4.99,0.00,29.8,28.6,00.0,38.5,31.7,11.6,0000.0,0008.12,0003.90,0003.51
2022-10-10 18:04:00,,0827.1,5.01,0.00,29.8,28.6,00.0,38.5,31.7,11.9,0000.0,0007.85,0003.89,0003.50
2022-10-10 18:05:00,,0827.1,4.99,0.00,29.9,28.7,00.0,38.5,31.7,11.5,0000.0,0007.95,0003.88,0003.48
2022-10-10 18:06:00,,0827.3,5.00,0.00,29.9,28.8,00.0,38.6,31.8,11.5,0000.0,0007.94,0003.88,0003.46
2022-10-10 18:07:00,,0827.2,5.00,0.00,29.9,28.9,00.0,38.6,31.8,11.4,0000.0,0007.91,0003.85,0003.45
2022-10-10 18:08:00,,0827.0,5.00,0.00,29.9,28.9,00.0,38.6,31.9,11.0,0000.0,0007.94,0003.83,0003.43
2022-10-10 18:09:00,,0827.3,5.01,0.00,30.0,28.9,00.0,38.6,31.9,11.1,0000.0,0007.29,0003.82,0003.41
2022-10-10 18:10:00,,0827.0,4.99,0.00,30.0,29.0,00.0,38.6,31.9,11.3,0000.0,0006.64,0003.82,0003.41
2022-10-10 18:11:00,,0827.0,5.01,0.00,30.0,28.0,00.0,38.6,31.8,11.2,0000.0,0006.75,0003.79,0003.39
2022-10-10 18:12:00,,0827.1,5.01,0.00,29.9,26.6,00.0,38.6,31.6,10.9,0000.0,0006.71,0003.77,0003.37
2022-10-10 18:13:00,,0827.0,5.00,0.00,29.9,26.3,00.0,38.5,31.5,10.8,0000.0,0006.78,0003.75,0003.35
2022-10-10 18:14:00,,0826.9,5.01,0.00,29.8,26.6,00.0,38.5,31.4,11.1,0000.0,0006.60,0003.73,0003.34
2022-10-10 18:15:00,,0827.2,4.99,0.00,29.7,26.9,00.0,38.5,31.3,11.3,0000.0,0007.02,0003.71,0003.34
2022-10-10 18:16:00,,0827.0,4.99,0.00,29.7,27.3,00.0,38.5,31.3,11.3,0000.0,0007.12,0003.68,0003.33
2022-10-10 18:17:00,,0827.1,5.00,0.00,29.7,27.6,00.0,38.4,31.4,11.6,0000.0,0007.15,0003.70,0003.33
2022-10-10 18:18:00,,0827.0,5.00,0.00,29.7,27.8,00.0,38.4,31.4,11.8,0000.0,0007.15,0003.71,0003.34
2022-10-10 18:19:00,,0826.9,5.00,0.00,29.7,28.0,00.0,38.4,31.4,11.8,0000.0,0007.08,0003.71,0003.35
2022-10-10 18:20:00,,0826.9,4.99,0.00,29.7,28.2,00.0,38.4,31.5,11.5,0000.0,0007.08,0003.71,0003.35
2022-10-10 18:21:00,,0826.9,5.01,0.00,29.7,28.3,00.0,38.4,31.5,11.6,0000.0,0007.07,0003.71,0003.35
2022-10-10 18:22:00,,0826.8,4.99,0.00,29.7,28.4,00.0,38.4,31.6,11.5,0000.0,0007.68,0003.71,0003.36
2022-10-10 18:23:00,,0826.8,5.01,0.00,29.7,28.5,00.0,38.4,31.6,11.5,0000.0,0007.87,0003.71,0003.37
2022-10-10 18:24:00,,0827.1,4.99,0.00,29.8,28.6,00.0,38.5,31.6,11.5,0000.0,0007.86,0003.74,0003.39
2022-10-10 18:25:00,,0826.9,5.00,0.00,29.8,28.7,00.0,38.5,31.7,11.3,0000.0,0007.84,0003.75,0003.40
2022-10-10 18:26:00,,0827.1,5.01,0.00,29.8,28.8,00.0,38.5,31.7,11.2,0000.0,0008.16,0003.77,0003.41
2022-10-10 18:27:00,,0826.8,4.99,0.00,29.8,28.8,00.0,38.5,31.8,11.2,0000.0,0008.74,0003.77,0003.42
2022-10-10 18:28:00,,0826.9,5.01,0.00,29.9,28.9,00.0,38.5,31.8,11.3,0000.0,0008.69,0003.75,0003.41
2022-10-10 18:29:00,,0826.8,5.00,0.00,29.9,28.1,00.0,38.5,31.7,11.2,0000.0,0008.65,0003.75,0003.40
2022-10-10 18:30:00,,0826.7,5.00,0.00,29.8,27.1,00.0,38.5,31.6,11.4,0000.0,0008.76,0003.77,0003.41
2022-10-10 18:31:00,,0826.8,5.01,0.00,29.8,27.0,00.0,38.4,31.5,11.6,0000.0,0009.18,0003.81,0003.43
2022-10-10 18:32:00,,0826.7,5.01,0.00,29.7,27.2,00.0,38.4,31.4,11.6,0000.0,0009.96,0003.83,0003.44
2022-10-10 18:33:00,,0826.7,5.00,0.00,29.7,27.5,00.0,38.4,31.4,11.5,0000.0,0009.30,0003.82,0003.44
2022-10-10 18:34:00,,0826.7,5.00,0.00,29.7,27.8,00.0,38.4,31.5,11.7,0000.0,0009.12,0003.81,0003.43
2022-10-10 18:35:00,,0826.7,4.99,0.00,29.7,28.0,00.0,38.4,31.5,11.7,0000.0,0009.18,0003.78,0003.43
2022-10-10 18:36:00,,0826.7,5.01,0.00,29.7,28.2,00.0,38.4,31.5,11.7,0000.0,0009.21,0003.77,0003.43
2022-10-10 18:37:00,,0826.7,4.99,0.00,29.7,28.3,00.0,38.4,31.6,11.5,0000.0,0008.70,0003.78,0003.43
2022-10-10 18:38:00,,0826.7,5.01,0.00,29.7,28.4,00.0,38.4,31.6,11.4,0000.0,0008.50,0003.79,0003.43
2022-10-10 18:39:00,,0826.7,4.99,0.00,29.8,28.5,00.0,38.5,31.7,11.3,0000.0,0008.97,0003.80,0003.43
2022-10-10 18:40:00,,0826.7,5.01,0.00,29.8,28.6,00.0,38.5,31.7,11.2,0000.0,0009.12,0003.82,0003.43
2022-10-10 18:41:00,,0826.7,5.00,0.00,29.8,28.7,00.0,38.5,31.7,11.1,0000.0,0009.11,0003.82,0003.43
2022-10-10 18:42:00,,0826.6,4.99,0.00,29.8,28.8,00.0,38.5,31.8,11.2,0000.0,0008.87,0003.83,0003.42
2022-10-10 18:43:00,,0826.7,5.01,0.00,29.9,28.8,00.0,38.5,31.8,11.2,0000.0,0008.53,0003.83,0003.42
2022-10-10 18:44:00,,0826.6,4.99,0.00,29.9,28.9,00.0,38.5,31.8,11.2,0000.0,0009.20,0003.84,0003.42
2022-10-10 18:45:00,,0826.7,5.01,0.00,29.9,28.1,00.0,38.5,31.8,11.3,0000.0,0009.35,0003.85,0003.42
2022-10-10 18:46:00,,0826.5,5.00,0.00,29.8,26.5,00.0,38.5,31.4,11.3,0000.0,0009.58,0003.88,0003.42
2022-10-10 18:47:00,,0826.5,4.99,0.00,29.8,26.0,00.0,38.4,31.4,11.1,0000.0,0010.14,0003.90,0003.42
2022-10-10 18:48:00,,0826.5,5.01,0.00,29.7,26.3,00.0,38.4,31.3,11.2,0000.0,0010.04,0003.89,0003.41
2022-10-10 18:49:00,,0826.5,5.00,0.00,29.6,26.7,00.0,38.4,31.3,11.2,0000.0,0009.41,0003.87,0003.41
2022-10-10 18:50:00,,0826.5,5.00,0.00,29.6,27.1,00.0,38.3,31.3,11.3,0000.0,0009.08,0003.87,0003.41
2022-10-10 18:51:00,,0826.5,5.00,0.00,29.6,27.4,00.0,38.3,31.3,11.3,0000.0,0009.01,0003.87,0003.40
2022-10-10 18:52:00,,0826.5,5.00,0.00,29.6,27.7,00.0,38.3,31.4,11.2,0000.0,0009.01,0003.87,0003.40
2022-10-10 18:53:00,,0826.5,5.00,0.00,29.6,27.9,00.0,38.3,31.4,11.2,0000.0,0008.95,0003.87,0003.41
2022-10-10 18:54:00,,0826.5,5.01,0.00,29.6,28.1,00.0,38.3,31.4,11.6,0000.0,0008.65,0003.85,0003.40
2022-10-10 18:55:00,,0826.5,5.00,0.00,29.6,28.2,00.0,38.3,31.4,11.5,0000.0,0007.84,0003.83,0003.39
2022-10-10 18:56:00,,0826.4,4.99,0.00,29.6,28.4,00.0,38.3,31.5,11.2,0000.0,0008.22,0003.83,0003.39
2022-10-10 18:57:00,,0826.4,5.00,0.00,29.7,28.5,00.0,38.3,31.5,10.9,0000.0,0008.25,0003.77,0003.37
2022-10-10 18:58:00,,0826.4,4.99,0.00,29.7,28.6,00.0,38.4,31.6,11.0,0000.0,0007.56,0003.74,0003.37
2022-10-10 18:59:00,,0826.3,5.02,0.00,29.7,28.6,00.0,38.4,31.6,11.4,0000.0,0007.48,0003.73,0003.37
